This demonstration page uses our WeatherBlox Daily Observations layout. Learn more.

Left ArrowRight Arrow

39.12711, -84.51439

Hourly Observations for September 2, 2022

Temp ( °F °C ) Dew Point ( °F °C ) Humidity (%) Winds ( mph kmh ) Pressure ( in mb ) Visibility ( mi km ) Precip ( " mm )
12:53 am 00:53 Clear 65 18.3 65 18.3 100 100 Calm 30.08 1019 8 13 0.00 0.00
1:53 am 01:53 Clear with Mist and Fog 65 18.3 65 18.3 100 100 Calm 30.07 1018 6 10 0.00 0.00
2:42 am 02:42 Clear with Mist and Fog 63 17.2 63 17.2 100 100 ENE 3 6 30.07 1018 1 2 0.00 0.00
2:48 am 02:48 Clear with Mist and Fog 63 17 63 17 100 100 ENE 3 6 30.07 1018 4 6 0.00 0.00
2:53 am 02:53 Clear with Mist and Fog 63 17.2 63 17.2 100 100 Calm 30.07 1018 6 10 0.00 0.00
3:34 am 03:34 Clear with Mist and Fog 64 17.8 63 17.2 96 96 Calm 30.07 1018 3 4 0.00 0.00
3:42 am 03:42 Clear with Mist and Fog 64 17.8 63 17.2 96 96 Calm 30.08 1019 6 10 0.00 0.00
3:53 am 03:53 Clear with Mist and Fog 63 17.2 63 17.2 100 100 ENE 3 6 30.07 1018 5 8 0.00 0.00
4:47 am 04:47 Partly Cloudy with Mist and Fog 63 17 63 17 100 100 Calm 30.09 1019 3 4 0.00 0.00
4:53 am 04:53 Partly Cloudy with Mist and Fog 63 17.2 63 17.2 100 100 Calm 30.09 1019 3 5 0.00 0.00
5:39 am 05:39 Clear with Mist and Fog 63 17.2 63 17.2 100 100 ENE 3 6 30.08 1019 1 2 0.00 0.00
5:46 am 05:46 Clear with Fog 62 16.7 61 16.1 96 96 NNE 3 6 30.08 1019 1 1 0.00 0.00
5:53 am 05:53 Clear with Mist and Fog 62 16.7 62 16.7 100 100 ENE 3 6 30.08 1019 1 2 0.00 0.00
6:03 am 06:03 Clear with Mist and Fog 62 16.7 62 16.7 100 100 NNE 3 6 30.08 1019 2 3 0.00 0.00
6:12 am 06:12 Clear with Mist and Fog 62 16.7 62 16.7 100 100 NE 3 6 30.10 1019 4 6 0.00 0.00
6:53 am 06:53 Clear with Patchy Fog 61 16.1 61 16.1 100 100 Calm 30.09 1019 10 16 0.00 0.00
7:53 am 07:53 Sunny with Patchy Fog 64 17.8 63 17.2 96 96 Calm 30.10 1019 10 16 0.00 0.00
8:53 am 08:53 Sunny 68 20 65 18.3 90 90 Calm 30.12 1020 10 16 0.00 0.00
9:53 am 09:53 Sunny 72 22.2 67 19.4 84 84 Calm 30.11 1020 10 16 0.00 0.00
10:53 am 10:53 Sunny 79 26.1 66 18.9 65 65 SE 8 13 30.10 1019 10 16 0.00 0.00
11:53 am 11:53 Sunny 81 27.2 65 18.3 58 58 ESE 10 17 30.10 1019 10 16 0.00 0.00
12:53 pm 12:53 Sunny 83 28.3 64 17.8 53 53 S 7 11 30.09 1019 10 16 0.00 0.00
1:53 pm 13:53 Sunny 84 28.9 65 18.3 53 53 S 7 11 30.08 1019 10 16 0.00 0.00
2:53 pm 14:53 Sunny 83 28.3 65 18.3 55 55 S 6 9 30.08 1019 10 16 0.00 0.00
3:53 pm 15:53 Sunny 85 29.4 66 18.9 53 53 ESE 6 9 30.07 1018 10 16 0.00 0.00
4:53 pm 16:53 Sunny 84 28.9 67 19.4 57 57 SE 5 7 30.06 1018 10 16 0.00 0.00
5:53 pm 17:53 Mostly Sunny 84 28.9 66 18.9 55 55 SSE 7 11 30.06 1018 10 16 0.00 0.00
6:53 pm 18:53 Mostly Sunny 83 28.3 68 20 61 61 SE 7 11 30.07 1018 10 16 0.00 0.00
7:53 pm 19:53 Sunny 78 25.6 71 21.7 79 79 SE 5 7 30.06 1018 10 16 0.00 0.00
8:53 pm 20:53 Clear 74 23.3 71 21.7 91 91 Calm 30.06 1018 10 16 0.00 0.00
9:53 pm 21:53 Clear 73 22.8 70 21.1 90 90 S 3 6 30.08 1019 10 16 0.00 0.00
10:53 pm 22:53 Clear 73 22.8 71 21.7 94 94 SW 3 6 30.09 1019 9 14 0.00 0.00
11:53 pm 23:53 Clear 72 22.2 70 21.1 93 93 Calm 30.09 1019 10 16 0.00 0.00

Powered by AerisWeather